sat.trackr.live / text

‹ back to catalog

O/OREOS (USA 219)

NORAD 37224 · 2010-062C

PAYLOAD ACTIVE UNKNOWN

§ Identity

Operator
Country
US
Launch date
2010-11-20
Launch site
KODAK
Launch vehicle
Mass (kg)
RCS (m²)

Purposes: comms

External: N2YO · Heavens-Above · Gunter

§ Orbital elements

Epoch: 2026-05-25T05:23:36.632256Z

Period
96.41 min
Inclination
71.9680°
Eccentricity
0.0012526
Mean motion
14.93628135 rev/d
Perigee alt
577.9 km
Apogee alt
595.4 km
Semi-major
6,964.8 km
B*
1.8117e-4
RAAN
132.3481°
Arg perigee
113.5337°
Mean anomaly
246.7151°
Rev number
11,321

§ Raw data

O/OREOS (USA 219)1 37224U 10062C   26145.22472954  .00001854  00000+0  18117-3 0  99982 37224  71.9680 132.3481 0012526 113.5337 246.7151 14.93628135113218

JSON: /api/v1/satellites/37224 · /tle

For live sub-satellite position, see the globe view (requires WebGL).

§ Visibility from observer

Set your observer location to see the next 7 days of passes ≥ 10°. The values pass through the URL so the page stays shareable.

No JS? Fill the form by hand. The geolocation button needs JavaScript.

§ Radio — SatNOGS DB

ModeDescriptionDownlinkUplink
AFSK AFSK Beacon 437.305 MHz

1 transmitter · refreshed weekly from db.satnogs.org